Location: Atlantic Beach
(40.5890°N, 73.7290°W)
Time: 23:52:32
(UTC+00:00)

Envisat - Pass Details

Date: 23 January 2021
Orbit: 764 x 766 km, 98.1° (Epoch: 03 March)

Event Time Altitude Azimuth Distance (km) Brightness Sun altitude
Rises 10:49:43 0° 11° (N) 3,241 6.2 -15.6°
Reaches altitude 10° 10:52:01 10° 10° (N) 2,310 5.5 -15.2°
Maximum altitude 10:57:07 79° 286° (WNW) 783 2.9 -14.2°
Drops below altitude 10° 11:02:10 10° 199° (SSW) 2,293 5.4 -13.3°
Sets 11:04:27 0° 198° (SSW) 3,215 6.2 -12.9°
